Location: D�nning
(49.2479°N, 12.8491°E)
Time: 08:18:40
(UTC+00:00)

Meteor 2-5 Rocket - Pass Details

Date: 18 September 2020
Orbit: 833 x 912 km, 81.2° (Epoch: 27 October)

Event Time Altitude Azimuth Distance (km) Brightness Sun altitude
Rises 18:37:32 0° 353° (N) 3,412 7.2 -14.1°
Reaches altitude 10° 18:40:09 10° 2° (N) 2,482 6.4 -14.5°
Maximum altitude 18:45:18 36° 68° (ENE) 1,341 4.4 -15.3°
Enters shadow 18:47:54 24° 115° (ESE) 1,713 4.7 -15.7°
